CW8948 Weather Reports


time (UTC)temp
C
wind
direction
speed
KPH
gust
KPH
rain 1hr
cm
rain 24hr
cm
rain mn
cm
humidity
%
barometer
mb
20260508213619 23 311 6.4 16.1 0.00 0.00 0.00 21 1015.5
20260508212619 23 276 8.0 16.1 0.00 0.00 0.00 20 1015.6
20260508211622 23 317 11.3 20.9 0.00 0.00 0.00 21 1015.7
20260508210625 23 295 11.3 20.9 0.00 0.00 0.00 21 1015.8
20260508205627 23 296 8.0 19.3 0.00 0.00 0.00 20 1015.9
20260508204633 23 311 6.4 17.7 0.00 0.00 0.00 22 1016.0
20260508203636 22 322 6.4 12.9 0.00 0.00 0.00 22 1016.1
20260508202618 22 266 9.7 17.7 0.00 0.00 0.00 22 1016.2
20260508201619 22 279 11.3 19.3 0.00 0.00 0.00 21 1016.2
20260508200625 22 297 11.3 19.3 0.00 0.00 0.00 22 1016.2
20260508195626 22 319 9.7 17.7 0.00 0.00 0.00 22 1016.2
20260508194627 22 321 9.7 17.7 0.00 0.00 0.00 24 1016.2
20260508193628 22 334 1.6 14.5 0.00 0.00 0.00 27 1016.3
20260508192630 22 326 3.2 12.9 0.00 0.00 0.00 28 1016.4
20260508191655 22 346 1.6 11.3 0.00 0.00 0.00 29 1016.5
20260508190637 22 286 11.3 14.5 0.00 0.00 0.00 27 1016.5
20260508185620 21 355 6.4 14.5 0.00 0.00 0.00 29 1016.5
20260508184620 21 331 6.4 12.9 0.00 0.00 0.00 29 1016.7
20260508183621 21 221 4.8 12.9 0.00 0.00 0.00 31 1016.8
20260508182628 21 300 4.8 9.7 0.00 0.00 0.00 31 1016.8
20260508181631 21 207 8.0 14.5 0.00 0.00 0.00 30 1016.8
20260508180626 21 222 6.4 11.3 0.00 0.00 0.00 30 1016.8
20260508175630 21 215 4.8 12.9 0.00 0.00 0.00 32 1017.0
20260508174629 21 244 3.2 8.0 0.00 0.00 0.00 32 1017.0
20260508173628 20 302 4.8 9.7 0.00 0.00 0.00 32 1017.0
20260508172634 20 267 4.8 9.7 0.00 0.00 0.00 31 1017.1
20260508171633 20 239 1.6 8.0 0.00 0.00 0.00 33 1017.0
20260508170632 20 225 4.8 8.0 0.00 0.00 0.00 32 1017.0
20260508165632 20 234 6.4 12.9 0.00 0.00 0.00 35 1017.0
20260508164632 20 240 1.6 11.3 0.00 0.00 0.00 36 1016.9
20260508163617 19 279 3.2 6.4 0.00 0.00 0.00 38 1016.8
20260508162616 19 281 4.8 11.3 0.00 0.00 0.00 39 1016.8
20260508161635 19 232 1.6 6.4 0.00 0.00 0.00 40 1016.8
20260508160639 18 222 4.8 6.4 0.00 0.00 0.00 39 1016.8
20260508155621 18 259 3.2 6.4 0.00 0.00 0.00 40 1016.8
20260508154626 17 261 4.8 9.7 0.00 0.00 0.00 55 1016.8
20260508153646 17 280 3.2 8.0 0.00 0.00 0.00 60 1016.8
20260508152627 16 279 4.8 11.3 0.00 0.00 0.00 63 1016.8
20260508151629 17 296 4.8 8.0 0.00 0.00 0.00 61 1016.7
20260508150635 17 289 1.6 6.4 0.00 0.00 0.00 55 1016.5
20260508145634 17 55 0.0 3.2 0.00 0.00 0.00 52 1016.5
20260508144634 16 55 0.0 0.0 0.00 0.00 0.00 51 1016.4
20260508143617 16 55 0.0 0.0 0.00 0.00 0.00 49 1016.4
20260508142617 15 55 0.0 0.0 0.00 0.00 0.00 51 1016.3
20260508141621 15 55 0.0 1.6 0.00 0.00 0.00 52 1016.2
20260508140640 14 55 0.0 0.0 0.00 0.00 0.00 52 1016.3
20260508135623 13 55 0.0 3.2 0.00 0.00 0.00 54 1016.2
20260508134645 12 55 0.0 0.0 0.00 0.00 0.00 55 1016.1
20260508133627 12 55 0.0 3.2 0.00 0.00 0.00 58 1016.0
20260508132630 11 55 0.0 0.0 0.00 0.00 0.00 61 1015.9
20260508131616 11 55 0.0 0.0 0.00 0.00 0.00 61 1015.7
20260508130617 11 55 0.0 0.0 0.00 0.00 0.00 61 1015.6
20260508125635 11 55 0.0 0.0 0.00 0.00 0.00 60 1015.6
20260508124656 11 55 0.0 4.8 0.00 0.00 0.00 59 1015.4
20260508123618 11 55 0.0 4.8 0.00 0.00 0.00 59 1015.2
20260508122620 11 55 0.0 4.8 0.00 0.00 0.00 57 1015.2
20260508121624 11 55 0.0 1.6 0.00 0.00 0.00 58 1015.0
20260508120625 11 55 1.6 4.8 0.00 0.00 0.00 56 1014.9
20260508115626 11 54 3.2 6.4 0.00 0.00 0.00 59 1014.9
20260508114629 11 333 1.6 4.8 0.00 0.00 0.00 61 1014.8
20260508113630 11 355 1.6 9.7 0.00 0.00 0.00 62 1014.8
20260508112634 11 5 0.0 1.6 0.00 0.00 0.00 62 1014.8
20260508111633 11 68 0.0 4.8 0.00 0.00 0.00 60 1014.6
20260508110654 11 68 0.0 0.0 0.00 0.00 0.00 59 1014.7
20260508105648 12 68 3.2 6.4 0.00 0.03 0.00 59 1014.6
20260508104634 12 125 0.0 6.4 0.00 0.03 0.00 59 1014.6
20260508103634 11 126 1.6 4.8 0.00 0.03 0.00 63 1014.7
20260508102651 11 125 0.0 0.0 0.00 0.03 0.00 64 1014.7
20260508101634 11 125 0.0 3.2 0.00 0.03 0.00 65 1014.7
20260508100618 11 125 0.0 6.4 0.00 0.03 0.00 68 1014.7
20260508095620 11 126 3.2 6.4 0.00 0.03 0.00 67 1014.7
20260508094623 11 138 0.0 0.0 0.00 0.03 0.00 67 1014.6
20260508093626 11 138 0.0 0.0 0.00 0.03 0.00 65 1014.6
20260508092648 12 138 0.0 0.0 0.00 0.03 0.00 64 1014.4
20260508091649 12 138 0.0 0.0 0.00 0.03 0.00 62 1014.3
20260508090651 12 138 0.0 0.0 0.00 0.03 0.00 61 1014.2
20260508085626 12 138 0.0 0.0 0.00 0.03 0.00 60 1014.0
20260508084627 12 138 0.0 0.0 0.00 0.03 0.00 59 1014.2
20260508083647 12 138 0.0 0.0 0.00 0.03 0.00 57 1014.2
20260508082624 13 138 0.0 1.6 0.00 0.03 0.00 57 1014.2
20260508081628 13 138 1.6 6.4 0.00 0.03 0.00 57 1014.2
20260508080631 13 137 6.4 8.0 0.00 0.03 0.00 58 1014.2
20260508075628 13 73 3.2 6.4 0.00 0.03 0.00 58 1014.2
20260508074649 13 29 0.0 0.0 0.00 0.03 0.00 61 1014.4
20260508073627 13 29 1.6 3.2 0.00 0.03 0.00 61 1014.4
20260508072645 13 29 0.0 0.0 0.00 0.03 0.00 62 1014.3
20260508071629 13 28 0.0 0.0 0.00 0.03 0.00 62 1014.2
20260508070652 13 28 0.0 4.8 0.00 0.03 0.00 61 1014.2
20260508065634 14 28 0.0 3.2 0.00 0.03 0.00 59 1014.1
20260508064651 13 29 1.6 4.8 0.00 0.03 0.00 57 1014.0
20260508063632 14 29 0.0 3.2 0.00 0.03 0.00 58 1013.8
20260508062617 14 29 3.2 4.8 0.00 0.03 0.00 58 1013.8
20260508061620 15 28 3.2 8.0 0.00 0.03 0.00 50 1013.9
20260508060624 15 34 6.4 8.0 0.00 0.03 0.00 48 1013.9
20260508055621 15 179 0.0 4.8 0.00 0.05 0.03 47 1013.8
20260508054623 15 180 0.0 1.6 0.00 0.05 0.03 45 1013.7
20260508053646 15 180 0.0 6.4 0.00 0.05 0.03 47 1013.6
20260508052630 15 179 3.2 8.0 0.00 0.05 0.03 52 1013.5
20260508051629 16 113 0.0 0.0 0.00 0.05 0.03 53 1013.4
20260508050649 16 113 0.0 0.0 0.00 0.05 0.03 58 1013.4
20260508045649 17 113 0.0 0.0 0.00 0.05 0.03 49 1013.4
20260508044632 17 113 0.0 0.0 0.00 0.05 0.03 40 1013.4
20260508043616 17 113 0.0 0.0 0.00 0.05 0.03 52 1013.3
20260508042635 18 113 0.0 0.0 0.00 0.05 0.03 49 1013.3
20260508041634 18 113 0.0 0.0 0.00 0.05 0.03 37 1013.3
20260508040617 18 113 0.0 3.2 0.00 0.05 0.03 33 1013.2
20260508035621 19 113 1.6 4.8 0.00 0.08 0.03 32 1013.1
20260508034628 19 113 1.6 3.2 0.00 0.08 0.03 33 1013.1
20260508033629 19 113 0.0 0.0 0.00 0.08 0.03 33 1013.0
20260508032629 20 113 0.0 3.2 0.00 0.08 0.03 31 1012.9
20260508031633 20 113 3.2 6.4 0.00 0.08 0.03 31 1012.9
20260508030620 20 131 3.2 6.4 0.00 0.08 0.03 31 1012.8
20260508025619 21 144 1.6 4.8 0.00 0.08 0.03 31 1012.7
20260508024618 21 220 3.2 4.8 0.00 0.08 0.03 31 1012.7
20260508023619 22 220 0.0 3.2 0.00 0.08 0.03 41 1012.7
20260508022620 23 220 0.0 0.0 0.00 0.08 0.03 27 1012.6
20260508021628 23 220 0.0 0.0 0.00 0.08 0.03 30 1012.6
20260508020632 23 220 0.0 0.0 0.00 0.08 0.03 24 1012.6
20260508015656 24 220 0.0 1.6 0.00 0.10 0.03 28 1012.5
20260508014635 24 220 0.0 3.2 0.00 0.10 0.03 28 1012.5
20260508013622 24 220 3.2 4.8 0.00 0.10 0.03 23 1012.6
20260508012644 24 220 1.6 3.2 0.00 0.10 0.03 23 1012.7
20260508011641 25 220 3.2 4.8 0.00 0.10 0.03 23 1012.7
20260508010624 25 219 0.0 4.8 0.00 0.10 0.03 23 1012.7
20260508005626 25 219 1.6 4.8 0.00 0.13 0.03 22 1012.7
20260508004646 25 219 3.2 4.8 0.00 0.13 0.03 22 1012.7
20260508003630 25 219 1.6 6.4 0.00 0.13 0.03 23 1012.6
20260508002633 25 219 3.2 6.4 0.00 0.13 0.03 23 1012.8
20260508001616 24 300 1.6 6.4 0.00 0.13 0.03 23 1013.0
20260508000631 24 5 6.4 8.0 0.00 0.13 0.03 24 1013.1
20260507235633 24 221 3.2 6.4 0.00 0.13 0.03 23 1013.1
20260507234618 24 20 4.8 9.7 0.00 0.13 0.03 26 1013.2
20260507233621 23 347 4.8 8.0 0.00 0.13 0.03 25 1013.3
20260507232621 23 20 1.6 8.0 0.00 0.13 0.03 24 1013.4
20260507231622 23 343 4.8 12.9 0.00 0.13 0.03 26 1013.5
20260507230623 23 355 4.8 9.7 0.00 0.13 0.03 25 1013.7
20260507225628 23 13 4.8 12.9 0.00 0.15 0.03 26 1013.9
20260507224630 23 293 4.8 12.9 0.00 0.15 0.03 25 1014.0
20260507223635 22 304 3.2 8.0 0.00 0.15 0.03 26 1014.3
20260507222657 22 296 4.8 12.9 0.00 0.15 0.03 26 1014.4
20260507221623 22 298 4.8 9.7 0.00 0.15 0.03 26 1014.5
20260507220624 22 281 6.4 12.9 0.00 0.15 0.03 27 1014.6
20260507215631 23 284 8.0 17.7 0.00 0.18 0.03 25 1014.7
20260507214633 23 276 9.7 14.5 0.00 0.18 0.03 25 1014.8